Home   Weather   Kulmbach   Past weeks

Flag for Germany Past Weather in Kulmbach, Bavaria, Germany — Yesterday and Last 2 Weeks

Now
23 °F

Passing clouds.


Feels Like: 14 °F
Forecast: 13 / 25 °F
Wind: 8 mph from Northeast

Location: Hof Airport

Current Time: Jan 17, 2017 at 4:29:38 pm

Latest Report: Jan 17, 2017 at 3:50 pm


Visibility: N/A

Pressure: 30.48 "Hg

Humidity: 80%

Dew Point: 18 °F

Location of KulmbachLocation

Past Weather in Kulmbach — Graph

°F

Kulmbach Temperature Yesterday

Maximum temperature yesterday: 25 °F (at 12:20 pm)
Minimum temperature yesterday: 19 °F (at 6:50 pm)
Average temperature yesterday: 23 °F

High & Low Weather Summary for the Past Weeks

 TemperatureHumidityPressure
High34 °F (Jan 12, 10:50 am)93% (Jan 2, 3:20 pm)30.63 "Hg (Jan 2, 3:20 pm)
Low7 °F (Jan 6, 5:20 pm)67% (Jan 7, 10:50 am)29.12 "Hg (Jan 13, 7:20 am)
Average26 °F85%30.00 "Hg
* Reported Jan 2 3:20 pm — Jan 17 3:20 pm, Kulmbach, Weather by CustomWeather, © 2017

Note: Actual official high and low records may vary slightly from our data, if they occured in-between our weather recording intervals... More about our weather records

Advertising

Kulmbach Weather History for the Previous 24 Hours

Scroll right to see more
 ConditionsComfort  
Time TempWeatherWind HumidityBarometerVisibility
3:20 pm
Tue, Jan 17
23 °FLight snow. Partly sunny.10 mph80%30.48 "HgN/A
2:50 pm23 °FLight snow. Partly sunny.12 mph80%30.48 "HgN/A
2:20 pm23 °FLight snow. Broken clouds.12 mph86%30.45 "HgN/A
1:50 pm23 °FLight snow. Ice fog.13 mph86%30.45 "Hg3 mi
1:20 pm23 °FLight snow. Cloudy.13 mph86%30.48 "Hg5 mi
12:20 pm23 °FBroken clouds.12 mph86%30.45 "HgN/A
11:50 am23 °FSnow flurries. Mostly cloudy.13 mph86%30.45 "HgN/A
11:20 am23 °FLow clouds.12 mph86%30.45 "HgN/A
10:50 am23 °FLight snow. Partly sunny.13 mph86%30.45 "Hg6 mi
10:20 am23 °FLight snow. Low clouds.10 mph86%30.45 "Hg4 mi
9:50 am23 °FLight snow. Low clouds.14 mph86%30.45 "Hg6 mi
9:20 am23 °FLight snow. Low clouds.13 mph86%30.42 "Hg5 mi
8:50 am21 °FSnow flurries. Partly sunny.12 mph93%30.42 "Hg4 mi
8:20 am21 °FLight snow. Broken clouds.10 mph93%30.42 "Hg4 mi
7:50 am21 °FSnow flurries. Mostly cloudy.12 mph93%30.39 "Hg4 mi
7:20 am21 °FLight snow. Mostly cloudy.8 mph93%30.39 "Hg5 mi
7:50 pm
Mon, Jan 16
19 °FOvercast.7 mph86%30.27 "HgN/A
7:20 pm19 °FOvercast.10 mph86%30.24 "HgN/A
6:50 pm19 °FLight snow. Low clouds.10 mph86%30.24 "HgN/A
6:20 pm21 °FLight snow. Low clouds.9 mph86%30.24 "HgN/A
5:20 pm21 °FLight snow. Partly cloudy.8 mph93%30.21 "HgN/A
4:20 pm23 °FLight snow. Mostly cloudy.10 mph86%30.18 "HgN/A
Weather by CustomWeather, © 2017

See weather overviewHow to use our weather pages